Location: Clatteringshaws Loch
(55.0508°N, 4.2860°W)
Time: 22:44:29
(UTC+01:00)

Daily predictions for brighter satellites

Satellite Brightness Start Highest point End
(mag) Time Altitude Azimuth Time Altitude Azimuth Time Altitude Azimuth
Cosmos 2278 Rocket 4.4 20:45:08 10° NNW 20:48:43 17° N 20:52:16 10° NE
Cosmos 2298 Rocket 4.4 20:43:35 10° NNW 20:48:54 69° WSW 20:54:11 10° SSE
Cosmos 2208 Rocket 4.1 20:43:55 10° SSW 20:49:17 79° ESE 20:54:46 10° NNE
Lacrosse 5 3.0 20:45:01 10° WNW 20:49:40 37° SW 20:54:18 10° SSE
EP 2 4.5 20:48:19 10° SW 20:51:02 77° SE 20:54:23 10° NE
Envisat 3.3 20:47:50 10° SE 20:52:43 50° ENE 20:57:38 10° N
Cosmos 1544 Rocket 4.2 20:51:09 10° SSW 20:55:32 62° WNW 20:59:58 10° N
Cosmos 1515 3.8 20:52:02 10° NNW 20:55:55 84° WSW 20:59:45 10° S
Cosmos 990 Rocket 4.0 20:50:49 10° NNW 20:56:08 79° ENE 21:01:23 10° SSE
Cosmos 1066 Rocket 4.3 20:52:02 10° NNW 20:57:43 83° ENE 21:03:30 10° SSE
Genesis I 4.5 20:54:18 10° NW 20:57:57 33° NNE 21:01:34 10° E
NOSS 2-1 (E) 3.7 20:55:28 10° SW 20:59:39 89° NW 21:04:57 10° NE
SeaSat 1 4.1 20:55:30 10° NNE 21:00:05 39° NW 21:04:38 10° WSW
Cosmos 1697 Rocket 3.2 20:56:08 10° S 21:01:17 38° ESE 21:06:27 10° NE
Cosmos 1570 Rocket 4.2 20:56:03 10° SSW 21:01:21 82° WNW 21:06:39 10° NNE
Resurs 01 Rocket 4.0 21:00:47 10° SSW 21:04:30 26° W 21:08:14 10° NW
Cosmos 1939 Rocket 3.1 21:01:53 10° SSE 21:06:00 61° ENE 21:10:08 10° N
SPOT 5 3.4 21:01:57 10° SE 21:06:33 42° ENE 21:10:57 10° N
EO 1 Delta rocket 3.9 21:04:34 10° N 21:09:14 89° ESE 21:14:24 10° SSW
Cosmos 2278 3.8 21:07:29 10° SSW 21:13:12 89° WNW 21:18:57 10° NNE
SL-16 R/B 3.8 21:11:02 10° SE 21:13:40 13° E 21:16:20 10° ENE
SJ-11-01 4.3 21:09:34 10° SSE 21:14:16 89° WSW 21:19:00 10° NNW
ERS-1 Rocket 3.0 21:10:46 10° SSE 21:15:48 88° ENE 21:20:53 10° NNW
ARGOS 4.0 21:11:39 10° ESE 21:16:29 35° ENE 21:21:22 10° N
H-2A R/B 3.5 21:14:03 10° ESE 21:17:44 21° NE 21:21:24 10° N
USA 215 3.3 21:12:36 10° E 21:19:11 85° NNE 21:25:45 10° WNW
PSLV R/B 4.3 21:18:00 13° ESE 21:20:10 27° ENE 21:22:51 10° N
Cosmos 1743 3.2 21:16:52 10° SSE 21:20:34 42° E 21:24:18 10° NNE
Cosmos 2173 Rocket 4.2 21:15:36 10° SSE 21:21:46 56° E 21:27:54 10° NNE
NOSS 7 (D) 4.4 21:18:25 10° SW 21:21:46 82° SE 21:25:29 10° NE
Cosmos 1726 Rocket 4.4 21:18:51 10° SSE 21:22:44 32° E 21:26:41 10° NNE
Cosmos 1980 Rocket 2.7 21:20:02 10° S 21:25:11 36° ESE 21:30:22 10° NE
RESURS DK-1 3.8 21:21:50 10° NW 21:25:39 35° WSW 21:29:26 10° S
Terra 3.5 21:23:41 11° E 21:27:01 20° NE 21:30:29 10° N
MetOp-B 4.3 21:21:59 10° SE 21:27:13 57° ENE 21:32:29 10° N
Cosmos 1605 Rocket 4.4 21:21:40 10° SSW 21:27:57 68° WNW 21:34:11 10° N
Cosmos 2369 3.9 21:22:21 10° SW 21:28:04 80° NW 21:33:50 10° NNE
Cosmos 1763 Rocket 4.1 21:23:48 10° SSE 21:28:20 33° ESE 21:32:52 10° NE
Cosmos 1825 Rocket 3.6 21:25:29 10° NNW 21:29:58 85° WSW 21:34:21 10° S
ATLAS CENTAUR R/B 3.5 21:29:32 10° W 21:34:00 33° NNW 21:38:17 10° NE
ALOS 4.3 21:30:20 10° SSW 21:34:23 29° W 21:38:28 10° NNW
Cosmos 1125 Rocket 3.5 21:29:10 10° NNW 21:34:24 72° ENE 21:38:56 14° SE
SPOT 1/Viking Rocket 3.9 21:32:26 13° SE 21:36:48 49° ENE 21:41:49 10° N
Cosmos 2098 Rocket 4.2 21:31:45 10° SSE 21:37:41 41° E 21:42:31 10° NNE
Cosmos 2100 Rocket 4.0 21:32:04 10° S 21:38:18 75° E 21:44:31 10° NNE
CZ-4 SHROUD 3.8 21:36:39 19° SE 21:38:27 38° ENE 21:41:22 10° N
Cosmos 1953 Rocket 3.6 21:36:57 10° NNW 21:41:26 87° W 21:45:55 10° S
Cosmos 1656 3.6 21:35:51 10° SSW 21:41:28 83° ESE 21:47:01 10° NE
Tsikada Rocket 4.2 21:35:31 10° N 21:41:56 64° ENE 21:47:51 12° SSE
Cosmos 2263 Rocket 2.4 21:38:02 10° NNW 21:43:35 58° NE 21:47:46 17° SE
CZ-4 DEB 4.3 21:42:10 10° SSW 21:45:05 34° W 21:48:02 10° NNW
Cosmos 468 Rocket 3.9 21:41:57 10° SSW 21:47:05 81° ESE 21:52:16 10° NNE
Cosmos 1842 3.2 21:43:34 10° N 21:47:31 79° ENE 21:50:44 15° SSE
H-2A R/B 2.1 21:46:28 11° SSE 21:50:29 77° WSW 21:54:43 10° NNW
Cosmos 2061 Rocket 4.0 21:44:42 10° S 21:50:59 82° E 21:57:16 10° NNE
Cosmos 841 Rocket 3.8 21:47:27 10° S 21:52:25 45° ESE 21:57:23 10° NE
Cosmos 1707 4.1 21:51:25 10° N 21:54:41 24° ENE 21:56:12 19° E
Cosmos 2228 3.7 21:52:39 19° SE 21:55:04 35° E 21:59:00 10° NNE
ASTEX 1 3.5 21:50:38 10° N 21:55:38 61° E 22:00:23 11° S
Meteor 2-5 Rocket 4.3 21:50:56 10° N 21:56:38 45° ENE 22:00:26 20° SE
Cosmos 2322 Rocket 3.0 21:55:44 15° SSE 21:59:15 29° ESE 22:04:01 10° NE
Cosmos 1814 Rocket 4.0 21:54:20 10° SSW 21:59:41 86° ESE 22:05:00 10° NNE
Cosmos 1758 Rocket 3.8 21:55:33 10° NNW 21:59:54 69° W 22:04:01 11° S
Cosmos 540 Rocket 4.5 22:00:05 21° SE 22:01:48 25° E 22:05:58 10° NE
Cosmos 1666 2.7 22:00:31 17° S 22:03:17 56° E 22:07:03 10° NNE
Cosmos 1459 Rocket 4.1 21:59:07 10° SSW 22:05:11 80° WNW 22:11:24 10° N
Meteor 1-15 Rocket 4.5 22:00:41 11° S 22:06:14 53° E 22:11:53 10° NNE
SL-08 RB Rocket 3.8 22:05:31 22° SE 22:08:24 63° ENE 22:12:59 10° N
deb Chang Zheng 4 3.6 22:04:10 10° NNE 22:08:39 69° ESE 22:13:05 10° S
Cosmos 1725 Rocket 4.0 22:04:31 10° S 22:10:38 63° E 22:16:50 10° NNE
Cosmos 372 Rocket 3.9 22:05:52 10° NNW 22:11:02 87° ENE 22:14:18 23° SSE
Meteor 2-9 Rocket 4.1 22:06:59 10° S 22:12:22 62° E 22:17:41 10° NNE
YAOGAN 6 2.9 22:10:07 19° S 22:12:41 68° WSW 22:16:26 10° NNW
GP-B 4.1 22:09:07 10° NNE 22:13:01 29° E 22:14:19 25° ESE
MetOp-A 4.4 22:08:50 13° S 22:13:40 69° WSW 22:19:03 10° NNW
Cosmos 1340 4.4 22:11:44 10° NNW 22:15:07 30° W 22:18:28 10° SSW
Cosmos 2360 4.3 22:09:53 10° SSW 22:15:28 58° ESE 22:21:07 10° NE
Okean 3 Rocket 4.5 22:12:44 10° N 22:16:47 33° ENE 22:18:24 26° ESE
Cosmos 1441 Rocket 4.0 22:25:51 10° N 22:29:35 38° ENE 22:30:31 32° E
Cosmos 2233 Rocket 4.1 22:29:21 21° SSE 22:33:27 60° E 22:39:37 10° NNE
Cosmos 2278 Rocket 3.6 22:29:47 10° NNW 22:34:44 29° NE 22:38:34 15° E
Cosmos 2058 Rocket 3.2 22:30:42 12° SSW 22:34:56 78° WNW 22:39:29 10° N
Genesis I 3.3 22:32:01 10° NW 22:35:58 68° SW 22:37:10 42° SSE
CZ-4B R/B 3.5 22:32:42 10° NNE 22:37:22 52° ESE 22:39:17 32° SSE
Cosmos 1606 Rocket 4.4 22:33:22 10° SSW 22:37:41 51° WNW 22:42:04 10° N
Cosmos 405 Rocket 2.9 22:36:20 10° NNW 22:40:06 64° W 22:41:32 34° S
Cosmos 332 Rocket 4.0 22:41:03 32° SSE 22:43:00 51° ESE 22:47:47 10° NE
Cosmos 1076 Rocket 4.5 22:40:11 10° N 22:44:01 31° ENE 22:44:51 29° E
SPOT 5 4.2 22:40:26 11° SSW 22:44:43 35° W 22:49:02 10° NNW
Cosmos 1697 Rocket 3.4 22:39:34 10° SW 22:45:08 55° NW 22:50:41 10° NNE
Cosmos 371 Rocket 3.7 22:45:09 37° SE 22:45:49 39° ESE 22:50:19 10° NE
CARTOSAT-1 3.5 22:47:22 42° SSE 22:48:45 75° ENE 22:53:06 10° NNW
Landsat 7 3.8 22:46:49 34° SSE 22:48:56 84° WSW 22:53:45 10° NNW
Cosmos 1844 Rocket 3.1 22:49:40 10° NNW 22:55:09 52° NE 22:57:35 31° ESE
ARGOS 3.8 22:53:09 21° SSW 22:56:36 52° W 23:01:54 10° NNW
H-2A R/B 1.9 22:54:34 36° S 22:56:39 83° WSW 23:01:37 10° NNW
SL-16 R/B 2.2 22:52:38 19° SSW 22:56:42 63° ESE 23:02:19 10° NE
Lacrosse 4 Rocket 3.8 22:59:14 12° ENE 22:59:14 12° ENE 22:59:41 10° ENE
Cosmos 1844 4.3 22:55:40 10° NNW 23:01:13 48° NE 23:03:45 29° ESE
USA 215 3.5 22:59:32 32° SSE 23:02:29 57° SW 23:08:56 10° WNW
DELTA 2 DEB (DPAF) 4.2 23:01:26 40° S 23:02:58 72° WSW 23:07:30 10° NNW
Terra 1.8 23:02:35 42° S 23:04:14 85° WSW 23:09:03 10° NNW
Cosmos 1766 Rocket 4.1 23:01:43 10° N 23:06:01 43° ENE 23:06:44 40° E
CZ-4 R/B 3.7 23:03:28 10° NNE 23:08:14 76° ESE 23:09:54 41° S
CZ-4C R/B 3.8 23:07:32 42° SSW 23:08:54 66° WSW 23:13:13 10° NNW
Cosmos 1980 Rocket 2.8 23:03:25 10° SW 23:09:01 57° NW 23:14:41 10° NNE
Cosmos 1375 Rocket 4.5 23:02:51 10° SSW 23:09:21 66° SE 23:15:54 10° NE
Cosmos 2360 Rocket 2.7 23:09:11 37° ESE 23:09:30 37° ESE 23:14:41 10° NE
Cosmos 1763 Rocket 4.3 23:05:04 10° SW 23:10:00 50° NW 23:14:58 10° NNE
Cosmos 783 Rocket 4.4 23:07:47 31° SSW 23:10:22 74° ESE 23:15:39 10° NNE
IGS 5A 3.4 23:09:57 55° S 23:10:50 80° WSW 23:15:01 10° NNW
Cosmos 1812 Rocket 3.4 23:09:47 50° S 23:10:53 84° E 23:15:15 10° NNE
SL-19 R/B 4.3 23:06:07 10° NNE 23:11:41 75° WNW 23:15:41 18° SSW
ATLAS CENTAUR R/B 3.8 23:10:16 10° NW 23:14:17 25° N 23:18:05 10° ENE
In-Cosmos 22 4.4 23:12:44 10° N 23:18:08 56° ENE 23:19:43 42° ESE
Cosmos 1464 Rocket 4.1 23:18:31 39° SSE 23:20:51 64° E 23:27:08 10° NNE
CZ-4B R/B 3.8 23:23:00 16° ENE 23:23:11 16° ENE 23:25:25 10° NNE
Nadezhda 4 Rocket 4.1 23:20:03 10° N 23:26:22 64° ENE 23:28:29 42° SE
Cosmos 1437 3.3 23:23:10 10° NNW 23:25:57 58° N 23:25:57 58° N
Cosmos 2263 Rocket 3.3 23:22:19 10° NW 23:27:17 34° WSW 23:29:28 25° SSW
GEOS 3 Rocket 4.2 23:23:24 10° ENE 23:27:21 37° ESE 23:27:21 37° ESE
Cosmos 2219 Rocket 4.0 23:30:25 15° E 23:30:25 15° E 23:32:36 10° ENE
Cosmos 1707 3.6 23:27:06 10° NNW 23:30:50 42° W 23:31:27 38° WSW
Spot 4 4.1 23:34:37 48° SSW 23:35:44 62° WSW 23:40:30 10° NNW
Cosmos 1378 3.3 23:35:35 10° NNW 23:39:14 70° W 23:39:14 70° W
Cosmos 2322 Rocket 2.4 23:37:25 11° SW 23:42:55 69° NW 23:48:35 10° NNE
Cosmos 540 Rocket 3.7 23:39:52 23° SW 23:43:01 66° WNW 23:48:10 10° NNE
TRAILBLAZER 4.4 23:40:47 10° NW 23:45:25 84° SW 23:45:41 78° SSE
Cosmos 2322 3.7 23:48:26 56° SSE 23:49:17 63° ESE 23:54:56 10° NE
GP-B 4.1 23:46:17 10° N 23:50:30 42° W 23:51:48 33° WSW
Cosmos 2237 Rocket 4.1 23:52:25 15° E 23:52:25 15° E 23:54:47 10° ENE
Meteor 1-24 Rocket 4.3 23:46:10 10° NNW 23:52:03 54° W 23:54:12 36° SSW
Cosmos 1500 Rocket 4.0 23:51:30 10° N 23:55:39 49° ENE 23:55:39 49° ENE
